Thunder Bay International Airport

Airport
ICAO code: 
CYQT
Summary
ICAO Region: 
NAM
Territory: 
Location: 
Thunder Bay, Ontario,
Coordinates: 
Aerial View: 
48° 22' 18.998" N, 89° 19' 26" W
Airport CFIT: 
Altimeter Temperature Error Correction
Airport GND: 
Aircraft Ground De/Anti Icing
Airport RE: 
Crosswind Landings
Airport WX: 
Low Level Turbulence
Metar
Observation
CYQT 241700Z 29009KT 20SM FEW020 M19/M25 A2981 RMK SC1 SC TR SLP118
Station
Thunder Bay, Ont.
Date/Time
2022-01-24 17:00:00
Wind direction
290°
Wind speed
09 kts
Lowest cloud amount
few clouds
Temperature
-19°C
Dew point
-25°C
Humidity
58%
Weather condition
n/a

Description

International airport located in Thunder Bay, Ontario, Canada.

Climatology

Humid Continental climate (Köppen climate classification Dfb) - Variable weather patterns and a large seasonal temperature variance. Summers are often warm and humid with frequent thunderstorms and winters can be very cold with frequent snowfall and persistent snow cover.

Runways

Designator Length Width Surface Rops
12/30 1615 61 ASP Yes/Yes
7/25 1890 61 ASP Yes/Yes
Airport map: 
Aerial View: 

SKYbrary Partners:

Safety knowledge contributed by: